Weather History for Madison, WI

Change the Weather History Date:

Wednesday, July 4, 2012

  Actual Average Record
Temperature  
Mean Temperature 92 °F 71 °F  
Max Temperature 102 °F 82 °F 102 °F (2012)
Min Temperature 81 °F 61 °F 44 °F (1967)
Degree Days  
Heating Degree Days 0 0  
Month to date heating degree days 0 0  
Since 1 June heating degree days 22 60  
Since 1 July heating degree days 0 0  
Cooling Degree Days 27 7  
Month to date cooling degree days 82 26  
Year to date cooling degree days 418 176  
Since 1 June cooling degree days 310 146  
Growing Degree Days 42 (Base 50)    
Moisture  
Dew Point 69 °F    
Average Humidity 52    
Maximum Humidity 74    
Minimum Humidity 29    
Precipitation  
Precipitation 0.00 in 0.14 in 1.39 in (1994)
Month to date precipitation T 0.55  
Year to date precipitation 11.39 16.92  
Snow  
Snow 0.00 in 0.00 in 0.00 in ()
Month to date snowfall 0.0 0.0  
Since 1 June snowfall 0.0 0.0  
Since 1 July snowfall 0.0 0.0  
Snow Depth 0.00 in    
Sea Level Pressure  
Sea Level Pressure 29.82 in    
Wind  
Wind Speed 5 mph (SW)    
Max Wind Speed 13 mph    
Max Gust Speed 21 mph    
Visibility 10 miles    
Events      
T = Trace of Precipitation, MM = Missing Value Source: NWS Daily Summary

Daily Weather History Graph

Daily Weather History Graph

Search for Another Location

Airport:

Trip Planner

Search our weather history database for the weather conditions in past years. The results will help you decide how hot, cold, wet, or windy it might be!

Date:

Astronomy

Jul. 04, 2012 Rise Set
Actual Time 5:23 AM CDT 8:39 PM CDT
Civil Twilight 4:48 AM CDT 9:15 PM CDT
Nautical Twilight 4:03 AM CDT 10:00 PM CDT
Astronomical Twilight 3:07 AM CDT 10:55 PM CDT
Moon 9:15 PM CDT (7/4) 6:28 AM CDT (7/4)
Length of Visible Light 16h 26m
Length of Day
15h 16m
Full, 99% of the Moon is Illuminated
Jul 4
Full
Jul 10
Last Quarter
Jul 18
New
Jul 26
First Quarter
Aug 1
Full

Hourly Weather History & Observations

Time (CDT) Temp. Heat Index Dew Point Humidity Pressure Visibility Wind Dir Wind Speed Gust Speed Precip Events Conditions
12:53 AM 84.0 °F 89.6 °F 72.0 °F 67% 29.79 in 10.0 mi SSW 5.8 mph - N/A   Clear
1:53 AM 82.9 °F 88.0 °F 72.0 °F 69% 29.79 in 10.0 mi SSW 4.6 mph - N/A   Clear
2:53 AM 82.0 °F 86.7 °F 72.0 °F 71% 29.80 in 10.0 mi SW 4.6 mph - N/A   Clear
3:53 AM 82.0 °F 86.7 °F 72.0 °F 71% 29.80 in 10.0 mi SW 3.5 mph - N/A   Clear
4:53 AM 82.0 °F 86.7 °F 72.0 °F 71% 29.81 in 10.0 mi SW 5.8 mph - N/A   Scattered Clouds
5:53 AM 81.0 °F 85.2 °F 72.0 °F 74% 29.82 in 10.0 mi SW 3.5 mph - N/A   Partly Cloudy
6:53 AM 81.0 °F 85.2 °F 72.0 °F 74% 29.83 in 10.0 mi Variable 3.5 mph - N/A   Partly Cloudy
7:53 AM 82.9 °F 88.0 °F 72.0 °F 69% 29.83 in 10.0 mi SW 3.5 mph - N/A   Clear
8:53 AM 88.0 °F 94.7 °F 72.0 °F 59% 29.83 in 10.0 mi SW 6.9 mph - N/A   Partly Cloudy
9:53 AM 91.9 °F 99.5 °F 72.0 °F 52% 29.83 in 10.0 mi SW 5.8 mph - N/A   Clear
10:53 AM 93.9 °F 100.3 °F 70.0 °F 46% 29.83 in 10.0 mi WSW 6.9 mph - N/A   Clear
11:53 AM 98.1 °F 103.0 °F 68.0 °F 37% 29.82 in 10.0 mi Variable 4.6 mph - N/A   Clear
12:53 PM 100.0 °F 104.2 °F 66.0 °F 33% 29.82 in 10.0 mi WSW 9.2 mph - N/A   Clear
1:53 PM 100.0 °F 103.0 °F 64.0 °F 31% 29.82 in 10.0 mi Variable 5.8 mph - N/A   Partly Cloudy
2:53 PM 100.9 °F 104.0 °F 64.0 °F 30% 29.81 in 10.0 mi WSW 10.4 mph - N/A   Partly Cloudy
3:53 PM 100.9 °F 103.3 °F 63.0 °F 29% 29.81 in 10.0 mi West 6.9 mph - N/A   Partly Cloudy
4:53 PM 100.4 °F 103.6 °F 64.4 °F 31% 29.82 in 10.0 mi Variable 5.8 mph - N/A   Partly Cloudy
5:53 PM 100.0 °F 103.0 °F 64.0 °F 31% 29.80 in 10.0 mi West 8.1 mph - N/A   Scattered Clouds
6:53 PM 97.0 °F 101.0 °F 66.9 °F 37% 29.81 in 10.0 mi Variable 4.6 mph - N/A   Partly Cloudy
7:53 PM 95.0 °F 97.9 °F 66.0 °F 38% 29.81 in 10.0 mi Variable 3.5 mph - N/A   Clear
8:53 PM 91.0 °F 95.2 °F 68.0 °F 47% 29.81 in 10.0 mi SW 3.5 mph - N/A   Clear
9:53 PM 89.1 °F 94.1 °F 70.0 °F 53% 29.83 in 10.0 mi SW 4.6 mph - N/A   Clear
10:53 PM 89.1 °F 95.0 °F 71.1 °F 55% 29.86 in 10.0 mi Variable 4.6 mph - N/A   Clear
11:53 PM 86.0 °F 91.5 °F 71.1 °F 61% 29.86 in 10.0 mi SW 3.5 mph - N/A   Clear